www.pogodaiklimat.ru

Погода и климат >> Архив погоды >> Финляндия >> Аэропорт Халли


ПОГОДА в Аэропорту Халли

  • Прогноз погоды в Аэропорту Халли
  • Монитор погоды в Аэропорту Халли

АРХИВ ПОГОДЫ в Аэропорту Халли

Время (UTC), дата Ветер
(напр.,м/с)
 
Видим.   Явления Облачность Т
(С)
Тd
(С)
f
(%)
Тe
(С)
Тes
(С)
Комфортность P
(гПа)
Po
(гПа)
Тmin
(С)
Tmax
(С)
R
(мм)
R24
(мм)
S
(см)
22 10.06 ЮЗ 2 >70 км н/о +11.8 +6.4 69 +11 +11 1019.4 1001.9
23 10.06 ЮЗ 2 65 км н/о +11.0 +6.6 74 +10 +10 1019.8 1002.1
00 11.06 Ю 3 >70 км н/о +10.8 +6.9 77 +9 +9 1020.3 1002.6
01 11.06 ЮЗ 2 60 км н/о +10.3 +7.6 83 +9 +9 1020.3 1002.6
02 11.06 Ю 2 65 км н/о +10.6 +8.1 85 +9 +9 1020.6 1002.9
03 11.06 ЮЗ 2 65 км н/о +11.9 +8.8 81 +11 +11 1020.7 1003.1
04 11.06 З 3 60 км н/о +13.0 +9.1 77 +12 +12 1021.2 1003.7
05 11.06 З 2 55 км н/о +14.3 +9.0 70 +14 +14 1021.4 1003.9
06 11.06 З 2 50 км н/о +16.1 +9.3 64 +16 +16 1021.4 1004.0 +10.2 +16.6
07 11.06 С 3 55 км н/о +17.2 +10.1 63 +17 +17 1021.4 1004.1
08 11.06 С 2 60 км н/о +18.2 +10.0 59 +19 +19 1021.8 1004.6
09 11.06 С 4 55 км н/о +18.1 +7.9 51 +18 +18 1022.0 1004.8
10 11.06 С 5 65 км н/о +18.6 +7.8 49 +19 +19 1022.6 1005.4
11 11.06 С 4 60 км н/о +18.8 +8.0 49 +19 +19 1022.4 1005.2
12 11.06 С 4 >70 км н/о +18.8 +7.4 47 +19 +19 1022.7 1005.5
13 11.06 С 4 65 км н/о +18.6 +7.6 49 +19 +19 1023.0 1005.8
14 11.06 С 4 60 км н/о +18.5 +6.8 46 +19 +19 1022.9 1005.7
15 11.06 С 4 55 км н/о +17.4 +5.9 47 +17 +17 1023.1 1005.8
16 11.06 С 4 40 км н/о +18.0 +5.0 42 +18 +18 1023.2 1005.9
17 11.06 СВ 6 60 км н/о +16.5 +4.0 43 +15 +15 1023.5 1006.1
18 11.06 СВ 6 50 км н/о +14.9 +2.3 43 +13 +13 1024.4 1006.9 +14.9 +19.8
19 11.06 С 4 >70 км н/о +13.3 +1.3 44 +12 +12 1025.3 1007.7
20 11.06 С 3 >70 км н/о +11.6 +1.0 48 +10 +10 1026.0 1008.3
21 11.06 С 4 >70 км н/о +9.7 -0.1 50 +7 +7 1026.4 1008.6
22 11.06 С 4 >70 км н/о +8.1 -0.5 55 +5 +5 1026.9 1009.0
23 11.06 С 3 >70 км н/о +6.8 -0.2 61 +4 +4 1027.2 1009.2
00 12.06 С 2 >70 км н/о +6.0 +0.8 69 +4 +4 1027.4 1009.3
01 12.06 С 3 >70 км н/о +5.7 +1.6 75 +3 +3 1027.6 1009.5
02 12.06 С 3 65 км н/о +5.9 +2.3 78 +3 +3 1027.9 1009.8
03 12.06 СВ 3 >70 км н/о +6.7 +2.3 73 +4 +4 1028.0 1010.0
04 12.06 СВ 3 >70 км н/о +7.2 +2.6 73 +4 +4 1028.2 1010.2
05 12.06 СВ 4 60 км н/о +9.0 +3.0 66 +6 +6 1028.4 1010.6
06 12.06 В 5 50 км н/о +10.8 +3.2 59 +8 +8 1027.9 1010.1 +5.6 +14.9
07 12.06 СВ 5 60 км н/о +11.5 +2.0 52 +9 +9 1028.1 1010.4
08 12.06 В 6 >70 км н/о +12.6 +1.7 47 +10 +10 1028.1 1010.4
09 12.06 СВ 5 60 км н/о +13.1 +1.1 44 +11 +11 1028.4 1010.8
10 12.06 В 4 65 км н/о +14.1 +1.8 43 +13 +13 1028.2 1010.6
11 12.06 В 6 60 км н/о +15.2 +2.2 41 +14 +14 1027.7 1010.2
12 12.06 В 4 >70 км н/о +15.2 +1.9 41 +14 +14 1027.4 1009.9
13 12.06 В 4 60 км н/о +16.0 +2.4 40 +15 +15 1027.1 1009.7
14 12.06 В 4 65 км н/о +15.7 +2.2 40 +15 +15 1026.8 1009.4
15 12.06 В 4 65 км н/о +16.2 +2.7 40 +16 +16 1026.1 1008.7
16 12.06 ЮВ 4 65 км н/о +15.9 +2.8 41 +15 +15 1026.0 1008.6
17 12.06 В 4 65 км н/о +15.5 +2.8 42 +15 +15 1026.0 1008.6
18 12.06 В 4 50 км н/о +14.5 +2.5 44 +13 +13 1026.1 1008.6 +10.6 +16.5
19 12.06 В 3 >70 км н/о +13.3 +3.5 51 +12 +12 1026.3 1008.7
20 12.06 В 4 >70 км н/о +12.6 +3.5 54 +11 +11 1026.2 1008.6
21 12.06 В 3 >70 км н/о +11.5 +3.4 57 +10 +10 1026.3 1008.6
22 12.06 В 3 >70 км н/о +11.1 +3.9 61 +9 +9 1026.8 1009.1
23 12.06 В 4 >70 км н/о +10.6 +3.8 63 +8 +8 1026.4 1008.7
00 13.06 В 3 >70 км н/о +10.5 +2.6 58 +9 +9 1026.3 1008.6
01 13.06 В 4 >70 км н/о +10.6 +1.3 53 +8 +8 1025.8 1008.1
02 13.06 ЮВ 5 >70 км н/о +10.6 +1.4 53 +8 +8 1025.7 1008.0
03 13.06 ЮВ 5 >70 км н/о +10.6 +1.5 53 +8 +8 1024.8 1007.1
04 13.06 ЮВ 5 >70 км н/о +10.8 +1.9 54 +8 +8 1024.4 1006.7
05 13.06 ЮВ 6 65 км н/о +11.3 +2.0 53 +9 +9 1024.0 1006.4
06 13.06 В 4 50 км н/о +11.9 +2.7 53 +10 +10 1023.3 1005.7 +10.4 +14.5
07 13.06 В 5 65 км в посл. час дождь н/о +12.5 +3.1 53 +11 +11 1023.2 1005.7
08 13.06 В 5 60 км н/о +13.4 +3.4 51 +12 +12 1022.7 1005.2
09 13.06 В 5 60 км н/о +14.7 +4.5 50 +13 +13 1022.7 1005.3
10 13.06 В 6 65 км н/о +14.9 +5.6 54 +13 +13 1022.1 1004.7
11 13.06 В 7 >70 км н/о +15.7 +6.7 55 +14 +14 1021.3 1003.9
12 13.06 В 6 65 км н/о +16.8 +7.6 55 +16 +16 1020.9 1003.6
13 13.06 В 4 65 км н/о +16.9 +8.5 58 +16 +16 1020.4 1003.2
14 13.06 В 6 60 км н/о +18.0 +9.0 56 +17 +17 1019.0 1001.8
15 13.06 ЮВ 6 60 км н/о +17.7 +8.6 55 +17 +17 1018.8 1001.7
16 13.06 ЮВ 5 60 км н/о +17.9 +9.4 58 +18 +18 1018.5 1001.4
17 13.06 ЮВ 5 60 км н/о +17.0 +9.2 60 +16 +16 1018.6 1001.4
18 13.06 ЮВ 4 50 км н/о +16.7 +9.3 62 +16 +16 1018.3 1001.0 +11.7 +18.2
19 13.06 В 3 60 км н/о +16.2 +9.1 63 +16 +16 1017.9 1000.7
20 13.06 ЮВ 3 55 км н/о +15.6 +8.1 61 +15 +15 1018.6 1001.3
21 13.06 В 3 55 км н/о +14.8 +8.6 66 +14 +14 1018.0 1000.7
22 13.06 В 3 60 км н/о +14.2 +8.7 69 +13 +13 1018.5 1001.1
23 13.06 В 4 60 км н/о +13.2 +8.7 74 +12 +12 1017.5 1000.1
00 14.06 В 4 60 км н/о +12.5 +8.5 77 +11 +11 1017.4 999.9
01 14.06 В 4 65 км н/о +12.0 +8.4 79 +10 +10 1017.2 999.7
02 14.06 В 3 60 км н/о +11.9 +8.2 78 +10 +10 1017.0 999.5
03 14.06 В 3 60 км н/о +11.9 +8.5 80 +10 +10 1016.7 999.2
04 14.06 В 3 60 км н/о +12.2 +9.7 85 +11 +11 1016.5 999.0
05 14.06 В 5 60 км н/о +12.4 +10.0 85 +10 +10 1016.4 999.0
06 14.06 В 3 50 км н/о +13.0 +10.1 83 +12 +12 1016.7 999.3 +11.9 +16.7
07 14.06 В 4 55 км н/о +12.9 +10.0 83 +11 +11 1016.7 999.3
08 14.06 В 4 60 км н/о +13.5 +10.0 79 +12 +12 1016.8 999.4
09 14.06 В 4 60 км н/о +13.5 +9.9 79 +12 +12 1017.2 999.8
10 14.06 В 3 65 км н/о +13.6 +10.2 80 +12 +12 1017.3 999.9
11 14.06 В 5 60 км н/о +13.8 +10.5 80 +12 +12 1017.0 999.7
12 14.06 В 4 65 км н/о +14.2 +10.2 77 +13 +13 1017.0 999.7
13 14.06 ЮВ 3 65 км н/о +14.4 +9.9 74 +14 +14 1016.7 999.4
14 14.06 ЮВ 3 65 км н/о +14.9 +9.9 72 +14 +14 1016.2 998.9
15 14.06 В 2 60 км н/о +14.9 +10.2 73 +15 +15 1015.9 998.6
16 14.06 ЮВ 3 65 км н/о +14.8 +10.1 73 +14 +14 1015.6 998.3
17 14.06 ЮВ 2 65 км н/о +14.7 +10.5 76 +14 +14 1015.3 998.0
18 14.06 ЮВ 2 50 км н/о +14.4 +10.8 79 +14 +14 1014.8 997.5 +12.8 +15.3
19 14.06 ЮВ 2 60 км н/о +14.1 +10.9 81 +14 +14 1014.7 997.3
20 14.06 ЮВ 2 50 км н/о +14.0 +11.7 86 +13 +13 1014.5 997.2
21 14.06 Ю 2 3100 м слаб. морось н/о +13.1 +12.8 98 +12 +12 1014.5 997.2
22 14.06 З 3 5000 м в посл. час осадки н/о +13.6 +13.2 97 +12 +12 1014.4 997.1
23 14.06 З 5 50 км н/о +12.8 +12.1 96 +10 +10 1014.5 997.1
00 15.06 З 5 >70 км н/о +12.4 +11.5 94 +10 +10 1014.4 997.0
01 15.06 З 5 25 км н/о +12.0 +11.4 96 +9 +9 1014.6 997.1
02 15.06 З 5 3500 м слаб. морось н/о +11.8 +11.4 97 +9 +9 1014.8 997.3
03 15.06 З 6 3700 м слаб. дождь н/о +11.4 +10.9 97 +8 +8 1014.9 997.4
04 15.06 З 6 9000 м в посл. час дождь н/о +11.2 +10.8 97 +8 +8 1015.1 997.6
05 15.06 З 5 50 км н/о +11.4 +10.6 95 +9 +9 1015.4 997.9
06 15.06 СЗ 4 50 км н/о +12.0 +10.7 92 +10 +10 1015.4 997.9 +11.2 +14.4
07 15.06 СЗ 4 >70 км н/о +12.3 +10.6 89 +10 +10 1015.5 998.1
08 15.06 СЗ 4 >70 км н/о +12.5 +10.6 88 +11 +11 1015.7 998.3
09 15.06 З 4 >70 км н/о +12.8 +10.6 86 +11 +11 1016.1 998.7
10 15.06 СЗ 3 >70 км н/о +12.7 +10.5 86 +11 +11 1016.7 999.2
11 15.06 СЗ 4 >70 км н/о +12.9 +10.5 85 +11 +11 1016.8 999.4
12 15.06 З 4 >70 км н/о +13.3 +10.5 83 +12 +12 1016.8 999.4
13 15.06 З 4 >70 км н/о +14.1 +10.8 81 +13 +13 1016.8 999.5
14 15.06 СЗ 4 60 км н/о +13.9 +10.8 82 +12 +12 1017.1 999.7
15 15.06 СЗ 3 60 км н/о +14.9 +11.2 79 +14 +14 1016.6 999.3
16 15.06 СЗ 3 60 км н/о +15.1 +11.3 78 +14 +14 1016.5 999.2
17 15.06 З 3 60 км н/о +15.5 +11.1 75 +15 +15 1016.5 999.2
18 15.06 З 3 50 км н/о +15.0 +11.3 79 +14 +14 1016.5 999.2 +12.0 +15.6
19 15.06 З 2 55 км н/о +14.9 +11.5 80 +15 +15 1016.1 998.8
20 15.06 З 2 60 км н/о +13.6 +11.5 87 +13 +13 1016.2 998.8
21 15.06 З 2 45 км н/о +12.0 +11.1 94 +11 +11 1016.2 998.7
22 15.06 З 2 45 км н/о +11.3 +10.7 96 +10 +10 1016.3 998.8
23 15.06 З 1 10 км н/о +10.2 +10.0 99 +10 +10 1016.5 999.0
00 16.06 штиль 0 35 км туман н/о +10.3 +10.1 99 +9 +9 1016.4 998.8
01 16.06 З 1 300 м туман н/о +9.3 +9.3 100 +8 +8 1016.6 998.9
02 16.06 СЗ 1 900 м туман н/о +9.7 +9.7 100 +9 +9 1016.3 998.7
03 16.06 СЗ 1 40 км в посл. час туман н/о +11.6 +10.6 94 +11 +11 1015.9 998.4
04 16.06 СЗ 1 55 км н/о +12.9 +11.3 90 +13 +13 1015.7 998.3
05 16.06 СЗ 1 45 км н/о +15.5 +12.1 80 +16 +16 1015.4 998.1
06 16.06 СВ 1 50 км н/о +17.4 +12.2 72 +18 +18 1015.2 998.0 +9.1 +17.4
07 16.06 ЮВ 2 40 км н/о +18.7 +12.2 66 +20 +20 1015.0 997.9
08 16.06 З 2 65 км н/о +19.6 +11.5 59 +21 +21 комфорт 1014.8 997.8
09 16.06 ЮВ 3 65 км н/о +20.8 +10.4 51 +23 +23 комфорт 1014.2 997.4
10 16.06 ЮВ 3 65 км н/о +20.7 +9.0 47 +23 +23 комфорт 1013.9 997.0
11 16.06 ЮВ 3 >70 км н/о +20.8 +9.4 48 +23 +23 комфорт 1013.6 996.7
12 16.06 ЮВ 1 >70 км н/о +21.7 +10.1 48 +23 +23 комфорт 1013.1 996.3
13 16.06 З 3 >70 км н/о +21.4 +10.4 49 +23 +23 комфорт 1013.0 996.1
14 16.06 ЮЗ 3 >70 км н/о +21.8 +10.7 49 +24 +24 комфорт 1012.6 995.8
15 16.06 ЮЗ 3 >70 км н/о +21.9 +9.9 46 +23 +23 комфорт 1012.4 995.6
16 16.06 ЮЗ 3 >70 км н/о +21.6 +10.3 49 +23 +23 комфорт 1012.1 995.3
17 16.06 З 3 >70 км н/о +21.6 +10.4 49 +23 +23 комфорт 1011.9 995.0
18 16.06 З 3 50 км н/о +21.1 +10.3 50 +23 +23 комфорт 1011.9 995.0 +17.4 +22.5
19 16.06 З 2 >70 км н/о +19.4 +10.9 58 +21 +21 комфорт 1011.8 994.9
20 16.06 ЮЗ 2 >70 км н/о +17.3 +10.4 64 +18 +18 1012.1 995.0
21 16.06 ЮЗ 2 >70 км н/о +15.4 +10.6 73 +15 +15 1012.2 995.0
22 16.06 З 3 >70 км н/о +14.6 +11.0 79 +14 +14 1012.5 995.2
23 16.06 З 3 >70 км н/о +14.1 +10.8 81 +13 +13 1012.8 995.5
00 17.06 З 1 >70 км н/о +14.1 +11.1 82 +14 +14 1012.6 995.3
01 17.06 З 1 45 км н/о +11.9 +10.5 91 +12 +12 1012.7 995.2
02 17.06 З 2 60 км н/о +12.3 +10.6 89 +11 +11 1012.5 995.1
03 17.06 Ю 1 60 км н/о +14.1 +11.4 84 +14 +14 1012.4 995.1
04 17.06 З 1 65 км н/о +15.8 +10.1 69 +17 +17 1012.5 995.3
05 17.06 ЮВ 1 60 км н/о +17.2 +11.5 69 +18 +18 1012.0 994.9
06 17.06 ЮВ 1 50 км н/о +18.9 +11.8 63 +21 +21 комфорт 1011.6 994.6 +10.9 +21.1
07 17.06 Ю 2 60 км н/о +20.7 +11.8 57 +23 +23 комфорт 1011.4 994.5
08 17.06 Ю 2 60 км н/о +22.1 +11.0 49 +24 +24 комфорт 1011.3 994.4
09 17.06 Ю 3 60 км н/о +23.6 +12.5 50 +26 +26 жарко 1010.9 994.2
10 17.06 ЮЗ 2 50 км н/о +24.3 +12.0 46 +26 +26 жарко 1010.6 993.9
11 17.06 З 4 65 км н/о +24.5 +11.4 44 +26 +26 жарко 1010.3 993.7
12 17.06 З 4 60 км н/о +25.3 +12.8 46 +27 +27 жарко 1010.2 993.6
13 17.06 З 4 60 км н/о +24.9 +11.6 43 +26 +26 жарко 1009.5 992.9
14 17.06 СЗ 6 65 км н/о +24.3 +13.2 50 +26 +26 жарко 1009.6 992.9
15 17.06 СЗ 3 65 км н/о +22.6 +12.8 54 +25 +25 комфорт 1009.9 993.1
16 17.06 З 1 50 км в посл. час дождь н/о +21.4 +13.7 61 +24 +24 комфорт 1009.9 993.1
17 17.06 Ю 3 65 км н/о +20.3 +15.1 72 +23 +23 комфорт 1009.8 993.0
18 17.06 З 6 50 км н/о +20.6 +10.5 52 +22 +22 комфорт 1009.8 992.9 +18.9 +25.3
19 17.06 З 5 >70 км н/о +18.8 +10.4 58 +19 +19 1010.3 993.3
20 17.06 З 4 >70 км н/о +16.3 +9.6 65 +16 +16 1010.6 993.5
21 17.06 Ю 2 >70 км н/о +15.7 +9.8 68 +16 +16 1010.5 993.4
22 17.06 Ю 2 65 км н/о +14.6 +9.3 70 +14 +14 1010.4 993.2
23 17.06 ЮЗ 4 60 км н/о +14.4 +7.5 63 +13 +13 1010.2 992.9

 

Местоположение метеостанции Аэропорт Халли (Финляндия): широта 61.86 долгота 24.80 высота над уровнем моря 143 м.

В архиве по умолчанию представлена погода в Аэропорту Халли за последнюю неделю. Архивные данные за месяц целиком и за предыдущие месяцы, начиная с января 2011 года, Вы можете получить, выбрав интересующий диапазон дат из раскрывающегося списка и нажав кнопку "Ввод!".


*Определитесь, кто Вы:
робот инопланетянин человек

Внимание! Время в таблицах - всемирное. Для получения местного времени необходимо прибавить поправку, которая равна 1 ч.

Смотрите также архив погоды в соседних городах и на ближайших метеорологических станциях:

Погода в Халли (Финляндия) (20 км)
Погода в Юупайоки Хююеяля (Финляндия) (27 км)
Погода в Юдинсало (Финляндия) (41 км)
Погода на Острове Сиилинкари (Финляндия) (67 км)
Погода в Тампере (Финляндия) (68 км)
Погода в Лейвонмаки Савенахо (Финляндия) (68 км)
Погода в Тампере (Финляндия) (70 км)
Погода в Мультия Кархила (Финляндия) (72 км)
Погода в Ламми Эво (Финляндия) (73 км)
Погода в Ювяскюля (Финляндия) (75 км)

Пояснения к столбцам:

Ветер - указаны скорость ветра в м/с - средняя за 10 мин, порывы в срок и между сроками (в фигурных скобках) и направление, откуда дует ветер: С - северный, СВ - северо-восточный, В - восточный, ЮВ - юго-восточный, Ю - южный, ЮЗ - юго-западный, З - западный, СЗ - северо-западный.
Видимость - горизонтальная дальность видимости в метрах или километрах. При видимости от 1 до 10 км при отсутствии осадков обычно наблюдается дымка, при ухудшении видимости до 1 км и менее - туман. В сухую погоду видимость может ухудшаться дымом, пылью или мглою.
Явления - указаны атмосферные явления, наблюдавшиеся в срок или в последний час перед сроком; фигурными скобками обозначены явления, наблюдавшиеся между сроками (за 1-3 часа до срока); квадратными скобками обозначены град или гололедные отложения с указанием их диаметра в мм.
Облачность - указаны через наклонную черту общая и нижняя облачность в баллах и высота нижней границы облаков в метрах; квадратными скобками обозначены формы облаков: Ci - перистые, Cs - перисто-слоистые, Cc - перисто-кучевые, Ac - высококучевые, As - высокослоистые, Sc - слоисто-кучевые, Ns - слоисто-дождевые, Cu - кучевые, Cb - кучево-дождевые. Подробнее классификацию облаков см. в Атласе облаков (PDF).
T - Температура воздуха - температура, измеренная на высоте 2 м над землей.
Td - Температура точки росы - температура, при понижении до которой содержащийся в воздухе водяной пар достигнет насыщения.
f - Относительная влажность воздуха - влажноcть воздуха, измеренная на высоте 2 м над землей.
Te - Эффективная температура - температура, которую ощущает одетый по сезону человек в тени. Характеристика душности погоды. При расчете учитывается влияние влажности воздуха и скорости ветра на теплоощущения человека.
Tes - Эффективная температура на солнце - температура, которую ощущает человек, с поправкой на солнечный нагрев. Характеристика знойности погоды. Зависит от высоты солнца над горизонтом, облачности и скорости ветра. Ночью, в пасмурную погоду, а также при ветре 12 м/с и более поправка равна нулю.
P - Атмосферное давление - приведенное к уровню моря атмосферное давление.
Po - Атмосферное давление - измеренное на уровне метеостанции атмосферное давление.
Tmin - Минимальная температура - минимум температуры воздуха на высоте 2 м над землей.
Tmax - Максимальная температура - максимум температуры воздуха на высоте 2 м над землей.
R - Количество осадков - Количество выпавших осадков за период времени, мм. При наведении курсора мыши на число - период времени, за который выпало указанное количество осадков.
R24 - Количество осадков - Количество выпавших осадков за 24 часа, мм.
S - Снежный покров - Высота снежного покрова, см. При наведении курсора мыши на число - состояние снежного покрова и степень покрытия местности в баллах.